Location: ?????
(31.8092°N, 35.2590°E)
Time: 04:22:40
(UTC+00:00)

Lacrosse 5 - Pass Details

Date: 23 October 2021
Orbit: 714 x 724 km, 57.0° (Epoch: 28 August)

Event Time Altitude Azimuth Distance (km) Brightness Sun altitude
Exits shadow 02:08:49 11° 343° (NNW) 2,151 4.1 -21.8°
Maximum altitude 02:13:09 31° 45° (NE) 1,234 3.5 -20.8°
Drops below altitude 10° 02:17:38 10° 107° (ESE) 2,191 5.5 -19.9°
Sets 02:20:14 0° 118° (ESE) 3,107 6.3 -19.3°
